Preview of NWS' New Version of Forecast
This preview is not operational and should not be used for support decisions.

Regional Weather Roundup (RWR)

Issued by National Weather Service (NWS)

                            
000
ASUS46 KSEW 171910
RWRWA 

WASHINGTON REGIONAL WEATHER ROUNDUP
NATIONAL WEATHER SERVICE SEATTLE WA
1100 AM PST SUN FEB 17 2019

NOTE:"FAIR" INDICATES FEW OR NO CLOUDS BELOW 12,000 FEET WITH NO 
SIGNIFICANT WEATHER AND/OR OBSTRUCTIONS TO VISIBILITY.

WAZ507-509-555>559-172000-
SEATTLE, TACOMA, EVERETT, AND VICINITY
  
CITY           SKY/WX    TMP DP  RH WIND       PRES   REMARKS
EVERETT        CLOUDY    39  37  92 VRB5      30.17R                  
BOEING FIELD   CLOUDY    39  35  86 CALM      30.19R                  
RENTON         CLOUDY    40  35  83 CALM      30.19R                  
SEATAC AIRPORT CLOUDY    39  35  86 CALM      30.17R                  
JBLM-MCCHORD   CLOUDY    36  36 100 CALM      30.18S                  
PUYALLUP       CLOUDY    36  36 100 CALM      30.17R FOG              
BREMERTON      LGT RAIN  37  37 100 E6        30.17R                  
JBLM-FT LEWIS  CLOUDY    34  34 100 CALM      30.18R FOG              
TACOMA NARROWS CLOUDY    36  34  92 S6        30.18R                  
$$
 
WAZ001-503-506-510-514-515-172000-
NORTH INTERIOR
  
CITY           SKY/WX    TMP DP  RH WIND       PRES   REMARKS
BELLINGHAM     MOSUNNY   41  25  53 N8        30.19R                  
FRIDAY HARBOR  PTSUNNY   43  34  70 N6        30.20R                  
EASTSOUND      CLOUDY    41  37  87 N14       30.20R                  
PORT ANGELES   CLOUDY    39  35  86 S3        30.21R                  
EDIZ HOOK      CLOUDY    41  35  78 N5        30.22R                  
PORT TOWNSEND  CLOUDY    43  39  87 NW6       30.18R                  
NAS WHIDBEY    PTSUNNY   46  35  65 N15G22    30.23R                  
ARLINGTON      PTSUNNY   37  36  96 CALM      30.18R                  
BURLINGTON     MOSUNNY   41  30  65 NW7       30.18R                  
$$
 
WAZ020-022-039-040-504-511-512-172000-
SOUTHWEST INTERIOR
  
CITY           SKY/WX    TMP DP  RH WIND       PRES   REMARKS
SHELTON        FOG       33  31  92 SE5       30.16R VSB 1/2          
OLYMPIA        FOG       32  32 100 CALM      30.19R VSB 1            
CHEHALIS       CLOUDY    37  34  87 CALM      30.19R                  
KELSO          CLOUDY    39  33  79 CALM      30.19R                  
VANCOUVER      CLOUDY    39  34  82 CALM      30.17R                  
SCAPPOOSE, OR  CLOUDY    42  33  70 VRB3      30.17R                  
PORTLAND, OR   PTSUNNY   40  34  79 CALM      30.17R                  
$$
 
WAZ021-516-517-172000-
WASHINGTON COAST
  
CITY           SKY/WX    TMP DP  RH WIND       PRES   REMARKS
FORKS          SUNNY     42  30  62 CALM      30.18R                  
HOQUIAM        MOSUNNY   37  36  96 E10       30.18R                  
ASTORIA, OR    PTSUNNY   39  35  86 NE12      30.17R                  
$$
 
WAZ019-023-024-040-567>569-172000-
CASCADE MOUNTAINS AND COLUMBIA GORGE
  
CITY           SKY/WX    TMP DP  RH WIND       PRES   REMARKS
STAMPEDE PASS  FOG       26  23  88 VRB6      29.98R VSB 3/4          
TROUTDALE, OR  MOSUNNY   42  34  73 CALM      30.17R                  
HOOD RIVER, OR CLEAR     36  28  75 S3        30.12R                  
THE DALLES, OR SUNNY     34  27  75 CALM      30.14R                  
$$

WAZ026-027-041>044-520-521-172000-
EAST SLOPES
  
CITY           SKY/WX    TMP DP  RH WIND       PRES   REMARKS
OMAK           CLOUDY    34  22  61 N24G31    30.07R WCI  21          
WENATCHEE      PTSUNNY   29  25  85 NW3       30.07R                  
ELLENSBURG     MOSUNNY   32  24  72 E6        30.04R                  
YAKIMA         MOSUNNY   33  27  78 W3        30.08R                  
SUNNYSIDE ARPT CLOUDY    33  32  94 S3        30.10  FOG              
YAKIMA TC      FAIR      34  27  74 CALM      30.05R                  
$$

WAZ028-034-035-172000-
COLUMBIA BASIN
  
CITY           SKY/WX    TMP DP  RH WIND       PRES   REMARKS
EPHRATA        CLOUDY    35  25  66 N14       30.05R WCI  26          
MOSES LAKE     PTSUNNY   32  26  78 W7        30.06R                  
PASCO          CLOUDY    35  31  85 CALM      30.12R                  
RICHLAND ARPT  CLOUDY    37  32  84 CALM      30.12R                  
HERMISTON, OR  CLOUDY    34  32  92 W3        30.11R FOG              
$$

WAZ036>038-172000-
NORTHEAST WASHINGTON
  
CITY           SKY/WX    TMP DP  RH WIND       PRES   REMARKS
SPOKANE GEIGER LGT SNOW  25  20  81 E18       30.01R WCI  11          
SPOKANE FELTS  LGT SNOW  29  21  72 E9        30.05R                  
FAIRCHILD AFB  LGT SNOW  25  25 100 E16       29.99R FOG     WCI  12  
COEURDALENE,ID LGT SNOW  24  19  81 N22       30.05R WCI   9          
DEER PARK      CLOUDY    26  16  65 NE24G30   30.04R WCI  11          
$$

WAZ029>033-172000-
SOUTHEAST WASHINGTON
  
CITY           SKY/WX    TMP DP  RH WIND       PRES   REMARKS
PULLMAN        CLOUDY    28  26  92 NW6       30.00R                  
LEWISTON, ID   FLURRIES  34  29  82 W8        30.03R                  
WALLA WALLA    LGT SNOW  32  30  92 CALM      30.07R FOG              
PENDLETON, OR  LGT SNOW  31  29  92 W5        30.05R FOG              
$$